Theta_e
310 310 309 309 307 307 307 308 309 312 314 314 313 312 311 311 311 311 310 310 313 316 320 321 321 316 322 323 319 321 325 330 331 329 327 329 326 327 328 324 327 329 330
307 306 306 306 307 308 310 311 313 313 313 312 311 310 309 308 308 308 309 309 310 314 318 320 321 321 322 320 322 314 325 326 329 328 329 331 329 330 330 323 327 333 332
305 305 306 308 309 311 312 313 313 311 310 309 307 305 305 305 305 304 305 306 307 310 315 317 319 321 322 322 321 322 317 326 328 328 328 330 330 328 329 325 330 333 331
306 307 309 311 312 312 312 311 310 308 306 305 305 305 305 305 304 304 305 306 308 310 311 314 317 318 320 321 321 321 319 323 327 328 327 328 328 328 328 329 330 334 333
308 310 312 312 311 310 308 308 306 304 305 305 306 305 305 304 304 304 304 304 305 306 308 312 315 316 319 318 320 320 317 323 325 327 326 326 327 328 329 328 326 330 333
311 311 310 309 309 307 307 305 304 305 306 306 305 303 304 304 304 304 303 302 303 305 307 309 311 317 318 316 315 316 321 322 325 325 326 326 328 328 329 330 327 330 332
308 306 304 305 305 305 304 305 307 306 305 304 303 303 303 303 303 303 303 302 302 303 305 307 311 315 317 318 318 322 323 322 324 325 326 326 327 327 328 328 327 328 331
306 302 304 305 303 304 305 306 307 304 303 303 303 301 301 301 301 301 302 302 302 302 304 307 312 316 317 318 320 321 322 323 323 324 324 325 326 327 327 326 326 330 329
301 302 304 303 303 304 306 307 305 305 304 303 302 301 301 301 301 300 302 301 301 303 305 310 314 316 317 320 320 321 321 322 325 324 325 328 327 327 327 327 329 329 325
302 303 303 302 303 305 306 306 308 307 304 303 301 301 301 302 301 301 301 301 301 304 309 311 315 316 318 319 320 320 322 323 323 323 324 324 325 327 329 328 326 322 323
303 303 302 303 304 306 307 308 308 307 305 303 301 301 301 301 301 301 300 301 303 305 309 312 316 317 316 319 320 321 321 321 323 322 324 325 326 326 324 321 319 316 322
302 303 302 304 305 306 308 309 309 307 305 303 301 300 301 300 300 303 304 304 305 307 310 315 317 316 315 318 316 317 316 316 318 316 315 318 320 323 324 323 321 321 320
301 303 301 303 305 307 308 309 308 306 304 303 301 300 300 301 301 304 305 306 306 308 311 315 314 315 318 318 319 320 320 321 321 321 316 318 322 322 321 320 317 313 312
300 302 302 303 307 307 308 308 307 306 305 303 301 301 301 302 303 303 306 308 309 309 313 313 315 317 319 319 320 321 321 323 320 320 320 319 319 317 315 315 315 320 324
299 301 302 303 305 307 307 307 307 307 305 303 302 301 303 303 303 304 308 310 310 314 316 315 316 317 318 318 318 318 316 315 314 314 312 314 320 323 322 323 327 327 327
298 301 303 304 306 306 306 307 308 306 306 304 303 303 304 303 304 307 312 310 311 316 316 317 317 319 315 314 316 318 319 319 318 317 318 320 322 325 326 329 329 327 327
299 301 303 304 304 305 305 305 304 306 307 306 304 304 304 306 309 313 312 313 316 317 317 318 319 317 315 316 316 316 316 317 319 321 321 322 324 327 328 327 329 329 328
300 300 301 302 303 304 305 306 305 306 306 306 306 305 305 309 311 314 314 316 316 318 317 320 318 316 316 316 315 313 313 318 320 320 321 324 324 327 327 328 328 328 327
298 299 300 301 301 303 306 307 306 306 306 305 306 306 307 312 313 314 317 317 317 317 319 319 318 315 315 316 316 314 311 314 319 321 322 325 325 325 328 327 327 327 327
298 299 299 300 301 304 306 306 305 306 306 306 305 305 310 312 314 313 315 316 317 318 318 319 317 315 316 317 317 316 315 314 313 319 321 323 322 325 325 327 326 326 326
298 299 299 300 300 303 305 305 305 305 305 305 305 309 311 311 315 314 316 317 317 318 318 318 316 315 317 317 316 314 314 312 312 315 319 322 321 325 325 326 326 326 326
298 298 298 298 299 302 305 306 306 306 305 306 307 310 311 311 314 314 314 315 315 315 315 316 315 317 316 316 317 318 319 316 316 321 321 320 323 325 325 326 326 324 326
297 297 298 298 298 301 304 305 307 307 307 307 308 309 310 312 312 312 314 315 317 316 317 317 317 316 316 314 317 319 321 319 320 320 320 321 322 321 325 326 325 323 322
298 297 296 297 297 299 302 304 304 306 307 307 308 309 309 311 312 312 313 314 314 317 317 317 317 316 316 314 313 313 314 318 318 318 320 320 320 318 322 326 325 323 323
292 295 296 295 296 297 298 300 302 304 305 306 307 308 309 309 309 311 312 312 314 314 316 317 317 317 316 316 315 313 313 313 313 313 312 312 315 318 319 326 326 324 322
289 290 292 295 295 295 296 297 299 300 303 304 304 305 307 309 310 311 311 312 314 314 315 317 317 317 317 316 317 316 315 314 314 314 312 310 309 315 319 322 325 324 322
Wind_Speed
19 22 26 29 33 36 39 41 41 41 39 37 34 34 35 36 35 36 38 42 43 43 38 37 36 37 32 30 33 35 38 41 43 39 38 34 41 42 40 41 48 48 44
26 29 32 35 37 38 39 38 37 35 32 30 31 33 34 33 33 34 35 36 38 38 36 36 36 33 32 33 31 36 37 38 43 40 41 36 40 48 43 35 30 36 31
30 33 35 36 37 37 36 34 32 29 28 28 27 27 25 25 25 29 30 30 32 34 36 35 35 33 33 31 31 32 36 41 41 44 44 39 35 37 37 35 34 34 27
33 34 35 36 35 33 32 30 27 25 24 23 24 26 25 25 25 26 26 27 27 28 32 34 34 35 35 31 30 31 35 39 41 46 46 44 36 31 24 25 34 24 26
34 36 34 31 29 29 27 26 22 19 21 25 29 29 27 27 26 25 26 28 30 32 32 29 33 37 37 35 31 32 35 38 38 41 39 38 40 33 31 32 28 29 25
32 31 29 26 26 26 26 23 20 23 27 30 31 28 28 29 30 32 30 29 29 29 30 34 36 32 35 35 36 35 34 38 38 38 36 39 40 36 31 40 34 31 24
29 27 24 24 26 24 21 20 23 26 30 30 29 30 35 36 33 32 32 32 29 32 30 28 30 30 30 30 32 32 32 37 42 39 36 39 38 39 36 38 39 41 30
26 23 23 24 25 20 21 24 27 28 27 31 33 38 36 36 35 36 31 32 29 28 29 28 28 25 28 29 27 12 12 22 37 41 39 40 45 44 46 41 41 39 28
23 22 23 24 21 21 24 27 29 30 32 32 31 38 37 38 35 34 32 28 26 25 25 24 23 24 27 23 22 25 26 22 26 30 28 34 34 40 48 38 40 34 23
24 24 24 23 21 23 25 29 34 31 36 35 35 32 34 31 26 25 25 25 24 18 17 22 18 21 18 29 30 25 28 22 27 23 16 17 15 36 35 35 37 32 24
23 23 24 21 21 21 25 31 34 32 36 31 35 32 30 27 26 25 23 19 18 18 18 17 19 19 10 8 11 13 12 5 20 24 22 24 22 26 29 29 29 28 23
22 23 22 20 20 20 26 30 33 31 34 35 33 32 22 25 22 20 10 11 16 17 17 13 11 6 17 21 24 23 17 17 23 20 20 20 24 29 29 27 26 24 21
24 23 23 22 20 21 26 30 31 29 29 33 30 25 26 21 20 21 25 15 19 21 14 13 16 21 11 10 11 14 23 21 22 23 25 24 25 25 25 25 24 22 20
23 23 23 22 20 21 26 28 25 25 27 27 27 24 20 16 24 26 24 12 22 17 5 28 23 10 6 13 15 21 18 18 22 22 24 24 24 23 23 24 24 24 24
23 22 21 20 20 25 28 26 23 19 20 24 25 17 19 22 25 27 14 13 18 10 25 24 17 10 12 16 17 16 16 17 19 19 19 21 18 16 18 20 22 23 26
22 20 19 20 23 24 26 28 17 14 17 17 18 18 19 24 27 26 4 18 17 16 20 21 12 9 16 14 17 19 18 19 21 20 18 15 14 13 18 18 19 20 23
20 19 19 20 21 23 22 22 22 14 16 16 14 16 17 21 23 1 10 15 12 15 21 14 10 12 18 19 17 15 16 15 15 16 14 12 12 11 16 16 17 20 20
20 18 19 19 18 19 20 19 17 14 21 15 15 17 13 17 14 9 19 17 14 19 20 8 11 12 18 17 15 16 15 14 13 14 14 11 10 10 13 13 17 19 16
21 20 20 18 16 16 16 16 17 16 17 14 13 12 6 15 13 3 17 18 19 21 19 8 11 12 14 14 14 13 12 12 11 12 12 9 8 8 9 12 15 16 16
23 20 19 18 17 17 16 19 18 15 13 10 9 6 9 12 17 17 17 19 18 18 12 13 11 12 10 8 11 10 7 6 8 9 9 8 7 6 7 10 14 16 17
26 24 21 20 19 18 19 19 19 18 15 11 9 12 12 11 8 24 22 17 16 18 10 16 16 11 9 10 9 8 7 5 7 8 7 7 3 2 4 7 10 14 14
28 27 25 23 21 18 19 22 22 20 20 18 19 15 15 12 14 18 19 17 13 12 15 17 14 12 12 8 10 10 8 7 10 10 10 7 5 2 3 8 12 16 14
32 31 29 27 24 20 18 18 17 18 20 19 22 21 19 16 7 4 12 12 13 16 16 16 14 10 13 12 11 8 8 9 8 8 6 4 6 7 3 5 9 8 7
29 32 34 31 29 24 20 17 16 14 16 16 17 16 17 15 11 9 8 7 8 9 8 8 8 10 13 10 9 8 6 7 7 8 3 3 6 10 7 1 10 5 7
28 28 30 33 33 30 25 22 19 15 12 12 12 12 10 11 10 9 6 9 4 1 3 6 8 12 11 11 9 8 5 2 2 4 6 8 7 6 7 2 8 6 3
27 28 28 28 30 32 31 27 24 21 17 13 11 10 7 4 3 3 3 3 2 2 6 8 10 11 15 12 13 12 10 8 9 8 9 11 7 6 5 4 5 5 4
Wind_Direction
292 293 292 293 295 296 296 296 295 292 292 291 291 291 291 289 285 278 270 264 261 261 258 257 257 260 262 267 274 274 264 257 255 257 256 258 245 256 274 253 245 251 235
300 301 302 303 303 302 301 299 297 295 291 291 294 294 294 291 288 283 279 272 264 258 257 255 256 258 261 265 270 277 265 260 250 253 256 255 265 260 272 265 249 231 219
306 306 306 306 305 304 304 302 298 293 291 294 296 297 295 293 293 291 282 277 271 262 256 256 255 255 258 261 266 270 275 261 259 253 254 255 261 266 268 262 232 231 214
309 309 308 307 306 305 304 302 297 291 293 297 296 294 289 287 289 290 284 280 276 272 262 257 258 258 256 258 264 268 275 262 253 253 252 253 253 256 248 238 228 226 207
311 310 308 305 304 303 304 304 298 295 297 297 298 298 292 287 288 286 294 289 283 277 263 256 261 259 257 259 263 269 276 262 253 248 243 242 242 240 235 234 233 228 210
310 309 309 306 304 305 306 302 301 305 303 301 301 296 291 289 285 292 293 294 287 281 279 270 256 260 262 266 270 273 264 254 251 244 242 235 237 230 230 233 234 215 200
309 308 306 309 309 307 305 307 306 305 310 306 300 299 299 300 295 295 291 295 290 278 275 276 263 263 269 270 276 267 256 247 241 248 241 243 239 236 226 220 224 221 200
310 306 307 309 306 308 309 307 310 311 304 307 306 310 304 303 302 300 292 291 288 282 272 268 259 265 266 272 264 241 295 250 242 243 246 246 245 236 232 235 218 195 186
309 305 307 308 305 306 307 315 313 311 311 311 309 311 307 304 295 293 287 288 287 280 270 250 255 267 273 259 246 264 265 263 233 237 255 240 225 231 211 203 186 180 173
311 307 307 304 301 306 316 322 318 313 318 319 318 311 311 308 305 297 288 285 283 272 245 241 252 265 271 255 263 259 254 232 233 222 182 174 198 186 184 184 181 179 170
311 311 308 302 303 317 326 317 316 313 316 318 321 314 317 313 307 301 293 281 255 252 243 243 260 251 256 228 191 199 158 159 202 194 218 204 195 164 164 179 188 191 172
312 315 308 301 311 316 312 318 319 318 317 317 321 325 317 314 313 318 321 253 240 238 238 252 272 250 157 152 118 119 104 95 138 138 121 132 149 158 166 171 173 177 176
316 316 314 307 313 307 319 320 322 324 326 322 323 322 316 327 343 341 325 274 218 225 243 271 140 150 132 173 195 179 164 154 156 153 157 164 171 172 173 173 174 174 174
316 317 316 314 308 310 316 325 325 328 327 332 329 322 320 325 336 337 346 212 202 208 201 144 161 173 330 146 154 157 158 159 163 166 168 173 177 177 176 174 169 166 165
325 320 323 319 317 313 317 321 327 329 327 328 334 327 327 319 327 345 341 196 192 177 153 182 194 199 140 135 136 144 150 162 169 170 162 155 156 157 167 167 166 168 169
336 335 330 328 325 324 324 326 331 337 334 333 335 333 331 320 336 352 174 179 181 176 187 184 181 174 148 139 135 134 130 129 130 139 146 150 153 158 163 170 168 170 171
344 340 336 335 331 333 334 334 329 343 343 340 338 334 328 333 351 185 182 180 178 176 172 159 150 146 132 133 131 129 129 128 136 136 129 134 144 147 161 163 165 162 164
353 347 342 340 339 338 338 346 339 331 340 340 335 340 334 347 3 181 186 185 174 173 176 160 149 137 131 133 132 121 114 119 127 136 125 116 128 146 152 159 169 178 180
2 358 353 350 356 353 355 0 358 352 347 347 341 343 43 10 29 55 174 176 176 166 173 169 156 134 123 126 126 118 109 114 120 128 135 127 120 134 151 165 171 176 188
11 9 5 7 10 10 18 5 357 349 352 1 3 18 55 52 63 117 142 141 147 158 161 163 156 140 125 126 123 113 116 117 119 128 138 139 134 138 155 170 183 186 189
18 18 20 24 27 33 30 31 30 29 26 37 57 66 57 67 83 58 110 123 139 160 168 167 164 150 145 135 119 100 85 101 143 141 140 140 127 125 156 171 183 184 189
26 28 28 29 32 42 46 50 48 52 60 60 54 65 69 99 131 74 69 108 115 118 134 154 159 155 150 132 117 93 77 98 122 126 122 109 63 72 166 169 188 198 205
28 33 36 36 36 43 50 55 58 52 58 62 60 60 64 81 92 55 51 92 109 129 132 142 142 144 148 135 124 97 77 90 120 120 113 78 45 34 24 199 190 188 222
31 32 36 39 38 39 45 45 42 44 42 48 52 59 63 75 66 62 49 82 99 125 155 156 152 147 159 149 140 131 112 94 93 84 87 26 13 15 20 186 201 231 305
29 31 34 36 39 39 37 38 40 35 33 29 32 49 55 63 86 88 86 74 68 135 182 186 178 178 176 184 184 186 182 150 11 10 358 335 313 332 0 322 229 244 340
29 30 31 32 34 38 38 36 32 31 31 26 22 20 31 37 39 70 74 96 196 195 213 213 204 194 205 207 208 220 231 246 273 305 339 334 306 286 323 345 236 222 65